Tracking 18980 objects as of 22-Feb-2018
HD Live streaming from Space Station
objects crossing your sky now

PSLV R/B

Track PSLV R/B now!
10-day predictions


NORAD ID: 28651
Int'l Code: 2005-017C
Perigee: 605.3 km
Apogee: 709.6 km
Inclination: 97.9 °
Period: 97.7 minutes
Semi major axis: 7028 km
RCS: 6.3542 m2 (large)
Launch date: May 5, 2005
Source: India (IND)
Launch site: SRIHARIKOTA (SRI)

Note: This is a ROCKET BODY
aabbcc
Your satellite tracking list
Your tracking list is empty




NASA's NSSDC Master Catalog

Two Line Element Set (TLE):
1 28651U 05017C   18052.80405022 +.00000088 +00000-0 +21021-4 0  9998
2 28651 097.9252 339.1275 0074194 358.7441 001.3569 14.73367591687310
Source of the keplerian elements: AFSPC